Location: Lloyden Park
(37.4658°N, 122.2031°W)
Time: 12:33:40
(UTC+00:00)

Meteor 2-5 Rocket - Pass Details

Date: 19 May 2025
Orbit: 833 x 909 km, 81.2° (Epoch: 15 June)

Event Time Altitude Azimuth Distance (km) Brightness Sun altitude
Exits shadow 12:14:58 - 216° (SW) 2,707 5.7 -8.0°
Reaches altitude 10° 12:15:36 10° 218° (SW) 2,484 5.5 -7.9°
Maximum altitude 12:20:47 37° 285° (WNW) 1,326 4.4 -7.0°
Drops below altitude 10° 12:26:06 10° 352° (N) 2,546 6.5 -6.1°
Sets 12:28:47 0° 1° (N) 3,501 7.4 -5.6°
